Regional Weather Roundup
Issued by NWS Kansas City/Pleasant Hill, MO

Home | Current Version | Previous Version | Text Only | Print | Product List | Glossary On
Versions: 1 2 3 4 5 6 7 8 9 10 11 12 13 14 15 16 17 18 19 20 21 22 23 24 25 26 27 28 29 30 31 32 33 34 35 36 37 38 39 40 41 42 43 44 45 46 47 48 49 50
000
ASUS43 KEAX 180811
RWREAX

WEATHER ROUNDUP FOR EASTERN KANSAS AND NORTHWEST MISSOURI
NATIONAL WEATHER SERVICE KANSAS CITY/PLEASANT HILL MO
300 AM CDT FRI APR 18 2014

KSZ040-057-103>105-MOZ028-029-037-043-180900-
...KANSAS CITY METROPOLITAN AREA...

CITY           SKY/WX    TMP DP  RH WIND       PRES   REMARKS
K.C. INTL      PTCLDY    34  29  82 SW3       30.28S
K.C. DOWNTOWN  CLEAR     39  35  86 NW3       30.28S
LEES SUMMIT    CLEAR     38  33  82 CALM      30.27F
OLATHE - IXD   CLEAR     35  32  88 NW3       30.28F FOG
OLATHE - OJC   CLEAR     36  33  89 CALM      30.26F FOG
LAWRENCE       CLEAR     31  29  92 CALM      30.28F FOG

$$

MOZ001>008-011>017-020>025-030>033-038>040-044>046-053-054-180900-
...NORTHERN AND CENTRAL MISSOURI...

CITY           SKY/WX    TMP DP  RH WIND       PRES   REMARKS
ST. JOSEPH     CLEAR     33  29  85 CALM      30.28F
MOSBY          FAIR      32  32 100 CALM      30.28F FOG
WARRENSBURG    CLEAR    N/A N/A N/A CALM      30.28S FOG
WHITEMAN AFB   CLEAR     36  34  90 S2        30.27F
CLINTON        CLEAR     37  37 100 CALM      30.28S FOG
SEDALIA        CLEAR     39  37  92 CALM      30.28S FOG
WARSAW         NOT AVBL
MARSHALL         N/A     41  39  93 CALM      30.30
CHILLICOTHE      N/A     32  28  85 CALM      30.30S
MOBERLY        CLEAR     37  34  87 W3        30.29S
KIRKSVILLE     CLEAR     31  29  92 NW3       30.29R

$$

MOZ041-047>049-056>058-063>065-088>090-097-180900-
...EASTERN AND SOUTHERN MISSOURI...

CITY           SKY/WX    TMP DP  RH WIND       PRES   REMARKS
ST. LOUIS INTL MOCLDY    52  39  61 NE3       30.26F
SPIRIT OF STL  PTCLDY    45  42  89 W3        30.27R
COLUMBIA       CLOUDY    43  40  89 CALM      30.28R
JEFFERSON CITY CLOUDY    45  40  82 N3        30.29R
MEXICO         CLEAR    N/A N/A N/A CALM      30.28S
HANNIBAL       CLEAR     43  37  81 CALM      30.28S
ROLLA          MOCLDY    41  37  86 N3        30.25S
LEBANON        PTCLDY    45  39  81 N5        30.25S
OSAGE BEACH    CLOUDY    43  37  81 CALM      30.28F
SPRINGFIELD    CLOUDY    45  40  82 N5        30.24R
BRANSON        CLOUDY    48  41  76 CALM      30.23S
NEVADA         PTCLDY    37  37 100 N5        30.28S FOG     WCI  34
JOPLIN         MOCLDY    44  40  85 E3        30.25F
WEST PLAINS    CLOUDY    52  38  58 CALM      30.24F

$$

IAZ060-094-KSZ022-034>040-054-083-096-NEZ052-066-093-180900-
...KANSAS...SOUTHEAST NEBRASKA AND IOWA...

CITY           SKY/WX    TMP DP  RH WIND       PRES   REMARKS
TOPEKA         CLEAR     34  31  88 CALM      30.28F FOG
MANHATTAN      PTCLDY    31  29  92 CALM      30.27F FOG
EMPORIA        CLEAR     34  32  92 CALM      30.26F FOG
CHANUTE        CLEAR     34  32  92 CALM      30.28R FOG
WICHITA        PTCLDY    37  33  85 W3        30.26F FOG
OMAHA          PTCLDY    33  27  78 CALM      30.26S
LINCOLN        CLEAR     38  26  62 CALM      30.26S
FALLS CITY     CLEAR     33  28  81 CALM      30.27S
LAMONI         CLEAR     38  31  76 SW7       30.27S WCI  33
DES MOINES     PTCLDY    38  30  73 E6        30.30S WCI  33

$$




USA.gov is the U.S. government's official web portal to all federal, state and local government web resources and services.